Doylestown, PA

6:58 PM EST on November 18, 2017 (GMT -0500)
Doylestown

Weather History for KDYL - January, 2013

Change the Weather History Date:

Wednesday, January 23, 2013

  Actual Average (KTTN) Record (KTTN)
Temperature  
Mean Temperature 13 °F -  
Max Temperature 18 °F 34 °F 72 °F (1906)
Min Temperature 8 °F 20 °F -3 °F (1936)
Degree Days  
Heating Degree Days 52    
Moisture  
Dew Point -1 °F    
Average Humidity 56    
Maximum Humidity 84    
Minimum Humidity 40    
Precipitation  
Precipitation 0.00 in - - ()
Sea Level Pressure  
Sea Level Pressure 30.24 in    
Wind  
Wind Speed 6 mph (WNW)    
Max Wind Speed 15 mph    
Max Gust Speed 23 mph    
Visibility 10 miles    
Events      
Averages and records for this station are not official NWS values.
T = Trace of Precipitation, MM = Missing Value Source: NWS Daily Summary

Daily Weather History Graph

Daily Weather History Graph

Search for Another Location

Airport or City:

Trip Planner

Search our weather history database for the weather conditions in past years. The results will help you decide how hot, cold, wet, or windy it might be!

Date:

Astronomy

Jan. 23, 2013 Rise Set
Actual Time 7:16 AM EST 5:08 PM EST
Civil Twilight 6:47 AM EST 5:37 PM EST
Nautical Twilight 6:14 AM EST 6:10 PM EST
Astronomical Twilight 5:42 AM EST 6:43 PM EST
Moon 2:16 PM EST (1/23) 4:26 AM EST (1/23)
Length of Visible Light 10h 50m
Length of Day
9h 51m
Waxing Gibbous, 89% of the Moon is Illuminated
Jan 23
Waxing Gibbous
Jan 26
Full
Feb 3
Last Quarter
Feb 10
New
Feb 17
First Quarter

Hourly Weather History & Observations

Time (EST) Temp. Windchill Dew Point Humidity Pressure Visibility Wind Dir Wind Speed Gust Speed Precip Events Conditions
12:54 AM 10.0 °F 0.4 °F -5.1 °F 51% 30.25 in 10.0 mi West 5.8 mph 16.1 mph N/A   Clear
1:54 AM 9.0 °F -0.9 °F -5.1 °F 53% 30.26 in 10.0 mi West 5.8 mph - N/A   Clear
2:54 AM 9.0 °F -4.2 °F -4.0 °F 56% 30.26 in 10.0 mi WNW 9.2 mph - N/A   Clear
3:54 AM 9.0 °F -0.9 °F -4.0 °F 56% 30.26 in 10.0 mi West 5.8 mph - N/A   Clear
4:54 AM 9.0 °F 0.6 °F -4.0 °F 56% 30.26 in 10.0 mi West 4.6 mph - N/A   Clear
5:54 AM 9.0 °F -2.2 °F -2.9 °F 59% 30.27 in 10.0 mi WNW 6.9 mph - N/A   Clear
6:54 AM 9.0 °F 0.6 °F -2.9 °F 59% 30.28 in 10.0 mi West 4.6 mph - N/A   Clear
7:54 AM 9.0 °F -2.2 °F -2.9 °F 59% 30.28 in 10.0 mi West 6.9 mph - N/A   Clear
8:54 AM 12.0 °F 0.5 °F -2.0 °F 53% 30.29 in 10.0 mi West 8.1 mph 16.1 mph N/A   Clear
9:54 AM 15.1 °F 1.1 °F -2.0 °F 47% 30.30 in 10.0 mi NW 12.7 mph 19.6 mph N/A   Clear
10:54 AM 15.1 °F 4.2 °F -2.9 °F 45% 30.29 in 10.0 mi West 8.1 mph 23.0 mph N/A   Partly Cloudy
11:54 AM 18.0 °F 4.2 °F -2.9 °F 40% 30.26 in 10.0 mi WNW 13.8 mph 21.9 mph N/A   Overcast
12:54 PM 16.0 °F 5.3 °F -0.9 °F 47% 30.22 in 10.0 mi WNW 8.1 mph - N/A   Overcast
1:54 PM 17.1 °F 2.5 °F -2.9 °F 41% 30.21 in 10.0 mi WNW 15.0 mph 20.7 mph N/A   Overcast
2:54 PM 18.0 °F 5.4 °F -0.9 °F 44% 30.22 in 10.0 mi NNW 11.5 mph 17.3 mph N/A   Overcast
3:54 PM 15.1 °F 3.3 °F -0.0 °F 51% 30.22 in 10.0 mi WNW 9.2 mph - N/A   Scattered Clouds
4:54 PM 15.1 °F 6.4 °F -0.0 °F 51% 30.22 in 10.0 mi West 5.8 mph - N/A   Scattered Clouds
5:54 PM 14.0 °F 8.2 °F -0.0 °F 54% 30.23 in 10.0 mi NW 3.5 mph - N/A   Clear
6:54 PM 12.9 °F - -0.0 °F 56% 30.23 in 10.0 mi Calm Calm - N/A   Clear
7:54 PM 12.9 °F - 1.9 °F 62% 30.22 in 10.0 mi Calm Calm - N/A   Clear
8:54 PM 10.0 °F - 1.9 °F 70% 30.21 in 10.0 mi Calm Calm - N/A   Clear
9:54 PM 8.1 °F - 3.0 °F 80% 30.22 in 10.0 mi Calm Calm - N/A   Scattered Clouds
10:54 PM 10.0 °F - 5.0 °F 80% 30.22 in 10.0 mi Calm Calm - N/A   Overcast
11:54 PM 9.0 °F - 5.0 °F 84% 30.20 in 10.0 mi Calm Calm - N/A   Mostly Cloudy